This is the latest recevied weather packets stored in our database for station/object KC3BHK-2. If no packets are shown the sender has not sent any weather packets the latest 10 day(s).
| Time | Temp. | Humidity | Pressure | Rain* | Wind** | Luminosity | Snow |
|---|---|---|---|---|---|---|---|
| 1777955112 | 17.22° C | - | - | 0 mm | 1.79 m/s, 163° | - | - |
| 1777954806 | 17.22° C | - | - | 0 mm | 1.79 m/s, 150° | - | - |
| 1777954498 | 16.67° C | - | - | 0 mm | 2.24 m/s, 163° | - | - |
| 1777954193 | 17.22° C | - | - | 0 mm | 2.68 m/s, 148° | - | - |
| 1777953889 | 17.78° C | - | - | 0 mm | 2.68 m/s, 155° | - | - |
| 1777953584 | 17.22° C | - | - | 0 mm | 1.79 m/s, 132° | - | - |
| 1777953279 | 17.78° C | - | - | 0 mm | 1.79 m/s, 162° | - | - |
| 1777952974 | 17.22° C | - | - | 0 mm | 0.89 m/s, 170° | - | - |
| 1777952667 | 17.78° C | - | - | 0 mm | 2.24 m/s, 163° | - | - |
| 1777952362 | 17.78° C | - | - | 0 mm | 1.34 m/s, 160° | - | - |
| 1777952057 | 17.22° C | - | - | 0 mm | 1.79 m/s, 167° | - | - |
| 1777951753 | 17.78° C | - | - | 0 mm | 1.79 m/s, 152° | - | - |
| 1777951448 | 17.78° C | - | - | 0 mm | 0.89 m/s, 110° | - | - |
| 1777951143 | 17.78° C | - | - | 0 mm | 1.79 m/s, 167° | - | - |
| 1777950226 | 18.89° C | - | - | 0 mm | 1.34 m/s, 148° | - | - |
| 1777949921 | 18.33° C | - | - | 0 mm | 1.34 m/s, 145° | - | - |
| 1777949616 | 18.89° C | - | - | 0 mm | 1.79 m/s, 138° | - | - |
| 1777949311 | 17.78° C | - | - | 0 mm | 2.68 m/s, 152° | - | - |
| 1777949003 | 17.78° C | - | - | 0 mm | 1.79 m/s, 176° | - | - |
| 1777948698 | 18.33° C | - | - | 0 mm | 1.79 m/s, 162° | - | - |
| 1777948394 | 18.33° C | - | - | 0 mm | 1.34 m/s, 197° | - | - |
| 1777948089 | 18.89° C | - | - | 0 mm | 1.34 m/s, 179° | - | - |
| 1777947784 | 18.33° C | - | - | 0 mm | 0.89 m/s, 219° | - | - |
| 1777947480 | 18.33° C | - | - | 0 mm | 2.68 m/s, 198° | - | - |
| 1777947172 | 18.89° C | - | - | 0 mm | 1.79 m/s, 217° | - | - |
* Rain latest hour (hover to see other rain measurements)
** Current wind speed in m/s (hover to see current wind gust speed)